Regional Weather Roundup
Issued by NWS

Home | Current Version | Previous Version | Text Only | Print | Product List | Glossary On
Versions: 1 2 3 4 5 6 7 8 9 10 11 12 13 14 15 16 17 18 19 20 21 22 23 24 25 26 27 28 29 30 31 32 33 34 35 36 37 38 39 40 41 42 43 44 45 46 47 48 49 50
000
ASUS43 KDMX 051006
RWRIA

WEATHER ROUNDUP FOR IOWA
NATIONAL WEATHER SERVICE DES MOINES IA
400 AM CST MON DEC 05 2016

NOTE: "FAIR" INDICATES FEW OR NO CLOUDS BELOW 12,000 FEET WITH NO
SIGNIFICANT WEATHER AND/OR OBSTRUCTIONS TO VISIBILITY.

* - THESE STATIONS ARE NOT NWS STATIONS...THUS NOT UNDER NWS
QUALITY CONTROL.  THEY ALSO DO NOT REPORT WEATHER SUCH
AS PRECIPITATION OR FOG.

IAZ001>003-012>014-020>022-031>034-043>046-051100-
   NORTHWEST IOWA

CITY           SKY/WX    TMP DP  RH WIND       PRES   REMARKS
CARROLL *      CLEAR     32  32 100 S5        29.82F WCI  27
CHEROKEE *     PTCLDY    31  30  97 S7        29.77F WCI  24
DENISON *      CLEAR     32  30  93 S9G15     29.79F WCI  24
LE MARS *      CLOUDY    34  30  86 SE10G16   29.74F WCI  26
ORANGE CITY *  CLOUDY    32  28  86 S5        29.72F WCI  27
SHELDON *      CLOUDY    32  32 100 S13       29.72F WCI  22
SIOUX CITY     CLOUDY    32  29  88 SE12      29.74F WCI  23
SPENCER        CLOUDY    33  31  92 S15       29.76F WCI  23
STORM LAKE *   PTCLDY    30  28  93 S15       29.78F WCI  19
$$

IAZ055>058-069>071-079>083-090>094-051100-
   SOUTHWEST IOWA

CITY           SKY/WX    TMP DP  RH WIND       PRES   REMARKS
ATLANTIC *     PTCLDY    32  32 100 S8        29.85F WCI  25
AUDUBON *      PTCLDY    30  28  93 CALM      29.85S
CLARINDA *       N/A     32  32 100 CALM      29.90S
COUNCIL BLFS * CLOUDY    34  32  93 S9        29.82F WCI  26
CRESTON *        N/A     30  30 100 S8        29.89F FOG     WCI  23
HARLAN  *      PTCLDY    30  30 100 CALM      29.87S
LAMONI         FOG       30  30 100 S7        29.91F VSB 1/4 WCI  23
RED OAK *      CLOUDY    32  32 100 S7        29.86F WCI  26
SHENANDOAH *   CLOUDY    32  30  93 SE6       29.87F WCI  26
$$

IAZ047>049-059>061-072>074-084-051100-
   CENTRAL IOWA

CITY           SKY/WX    TMP DP  RH WIND       PRES   REMARKS
AMES           CLOUDY    26  26 100 SE6       29.88F FOG     WCI  19
ANKENY *       PTCLDY    30 N/A N/A S6        29.90F HAZE    WCI  24
BOONE *        PTCLDY    30  30 100 S8        29.85F WCI  23
CHARITON *     FOG       32  32 100 S10       29.92F VSB 1/4 WCI  24
DES MOINES     CLOUDY    32  30  92 S8        29.89F FOG     WCI  25
GRINNELL*      FOG       32  32 100 S7        29.93S VSB 1/4 WCI  26
KNOXVILLE *    CLOUDY    34  32  93 S10       29.91F FOG     WCI  26
MARSHALLTOWN   FOG       31  31 100 S7        29.90S VSB 1/2 WCI  24
NEWTON *       FOG       32  32 100 S9        29.92S VSB<1/4 WCI  24
PELLA *        FOG       33  33  98 S7        29.94F VSB 1/2 WCI  27
PERRY *          N/A     31  31 100 SE9       29.86F WCI  23
$$

IAZ004>006-015-016-023>025-035-036-051100-
   NORTH CENTRAL IOWA

CITY           SKY/WX    TMP DP  RH WIND       PRES   REMARKS
ALGONA *       CLOUDY    32  32 100 S13       29.81S WCI  22
CLARION *      CLOUDY    30  32 100 S9        29.84F WCI  22
ESTHERVILLE    CLOUDY    31  31 100 S10       29.77F WCI  22
FORT DODGE *   CLEAR     32  28  86 S5        29.84F WCI  27
MASON CITY     CLOUDY    28  27  96 S6        29.85F WCI  22
FOREST CITY *  MOCLDY    30  30 100 S6        29.83S FOG     WCI  24
WEBSTER CITY * CLEAR     28  28 100 SE9       29.83F WCI  20
IOWA FALLS *     N/A     30  29  96 SE6       29.88F FOG     WCI  24
$$

IAZ007>011-017>019-026>030-037>042-050>054-066-051100-
   NORTHEAST IOWA

CITY           SKY/WX    TMP DP  RH WIND       PRES   REMARKS
CEDAR RAPIDS   FOG       32  32 100 S13       29.95R VSB 1/4 WCI  22
CHARLES CITY * MOCLDY    28  28 100 SE8       29.86F FOG     WCI  20
CLINTON *      CLOUDY    33  32  96 SW9       29.98S FOG     WCI  25
DECORAH *      CLOUDY    32  32 100 S5        29.87F FOG     WCI  27
DUBUQUE        LGT SNOW  33  32  96 SW13      29.93R FOG     WCI  24
MONTICELLO *   CLOUDY    34  32  93 SW8       29.94S FOG     WCI  27
OELWEIN *      FOG       30  30 100 S13       29.91S VSB<1/4 WCI  20
WATERLOO       CLOUDY    30  29  96 S8        29.90F FOG     WCI  22
$$

IAZ064-065-067-068-078-051100-
   EAST CENTRAL IOWA

CITY           SKY/WX    TMP DP  RH WIND       PRES   REMARKS
DAVENPORT      CLOUDY    33  32  96 S6        29.98S FOG     WCI  28
IOWA CITY      CLOUDY    33  32  96 S9        29.99R FOG     WCI  25
MUSCATINE *    CLOUDY    34  32  93 S13       30.00S FOG     WCI  25
QUAD CITIES    CLOUDY    34  31  88 S6        29.99S WCI  29
$$

IAZ062-063-075>077-085>089-095>099-051100-
   SOUTHEAST IOWA

CITY           SKY/WX    TMP DP  RH WIND       PRES   REMARKS
BURLINGTON     CLOUDY    33  33 100 SW8       29.99S FOG     WCI  26
FAIRFIELD *    FOG       34  32  93 S8        29.97S VSB 1/4 WCI  27
FORT MADISON * FOG       34  34 100 SW3       30.00F VSB 3/4
KEOKUK *       FOG       34  34 100 W3        29.98F VSB 1/4
OSKALOOSA *    FOG       33  32  99 S7        29.96S VSB 1/2 WCI  26
CENTERVILLE *  FOG       32  32 100 S9        29.96F VSB 3/4 WCI  24
OTTUMWA        FOG       34  32  92 S12       29.95F VSB 1/2 WCI  25
WASHINGTON *   FOG       32  32 100 S9        29.99R VSB 1/4 WCI  24
$$

ABBREVIATIONS USED IN REMARKS
   TC - TEMPERATURES IN CELSIUS
  WCI - WIND CHILL INDEX
   HX - HEAT INDEX
  VSB - VISIBILITY
$$




USA.gov is the U.S. government's official web portal to all federal, state and local government web resources and services.